Weather History for Fairbanks Eiels, AK

Change the Weather History Date:

Wednesday, March 12, 2014

  Actual Average Record
Temperature  
Mean Temperature 21 °F -  
Max Temperature 36 °F 21 °F 43 °F (1981)
Min Temperature 5 °F -1 °F -36 °F (1972)
Degree Days  
Heating Degree Days 44    
Moisture  
Dew Point 6 °F    
Average Humidity 65    
Maximum Humidity 81    
Minimum Humidity 51    
Precipitation  
Precipitation 0.00 in - - ()
Sea Level Pressure  
Sea Level Pressure 29.36 in    
Wind  
Wind Speed 3 mph (SSW)    
Max Wind Speed 8 mph    
Max Gust Speed -    
Visibility 10 miles    
Events      
Averages and records for this station are not official NWS values.
T = Trace of Precipitation, MM = Missing Value Source: NWS Daily Summary

Daily Weather History Graph

Daily Weather History Graph

Search for Another Location

Airport:

Trip Planner

Search our weather history database for the weather conditions in past years. The results will help you decide how hot, cold, wet, or windy it might be!

Date:

Astronomy

Mar. 12, 2014 Rise Set
Actual Time 8:17 AM AKDT 7:40 PM AKDT
Civil Twilight 7:28 AM AKDT 8:29 PM AKDT
Nautical Twilight 6:31 AM AKDT 9:26 PM AKDT
Astronomical Twilight 5:29 AM AKDT 10:29 PM AKDT
Moon 3:19 PM AKDT (3/12) 6:59 AM AKDT (3/12)
Length of Visible Light 13h 00m
Length of Day
11h 23m
Waxing Gibbous, 86% of the Moon is Illuminated
Mar 12
Waxing Gibbous
Mar 16
Full
Mar 23
Last Quarter
Mar 30
New
Apr 7
First Quarter

Hourly Weather History & Observations

Time (AKDT) Temp. Windchill Dew Point Humidity Pressure Visibility Wind Dir Wind Speed Gust Speed Precip Events Conditions
12:58 AM 35.4 °F - 21.0 °F 56% 29.08 in 10.0 mi Calm Calm - N/A   Clear
1:58 AM 34.5 °F 28.6 °F 23.2 °F 63% 29.11 in 10.0 mi SSE 6.9 mph - N/A   Partly Cloudy
2:58 AM 17.6 °F 7.3 °F 6.8 °F 63% 29.16 in 10.0 mi West 8.1 mph - N/A   Clear
3:58 AM 14.0 °F 5.1 °F 3.9 °F 64% 29.20 in 10.0 mi WSW 5.8 mph - N/A   Clear
4:58 AM 12.0 °F 4.1 °F 2.8 °F 67% 29.23 in 10.0 mi SSW 4.6 mph - N/A   Clear
5:58 AM 10.8 °F 0.0 °F 2.3 °F 69% 29.26 in 10.0 mi South 6.9 mph - N/A   Clear
6:58 AM 9.1 °F 0.8 °F 1.2 °F 70% 29.27 in 10.0 mi South 4.6 mph - N/A   Clear
7:58 AM 8.4 °F -0.1 °F 1.0 °F 72% 29.29 in 10.0 mi Variable 4.6 mph - N/A   Clear
8:58 AM 7.5 °F - 0.7 °F 74% 29.31 in 10.0 mi Calm Calm - N/A   Clear
9:58 AM 9.3 °F - 1.6 °F 71% 29.31 in 10.0 mi Calm Calm - N/A   Clear
10:58 AM 12.6 °F - 2.1 °F 63% 29.34 in 10.0 mi Calm Calm - N/A   Clear
11:58 AM 14.4 °F 6.9 °F 5.7 °F 69% 29.35 in 10.0 mi NNE 4.6 mph - N/A   Clear
12:58 PM 16.7 °F 8.3 °F 7.0 °F 66% 29.37 in 10.0 mi North 5.8 mph - N/A   Clear
1:58 PM 19.8 °F 11.9 °F 5.9 °F 55% 29.41 in 10.0 mi Variable 5.8 mph - N/A   Clear
2:58 PM 20.1 °F - 5.9 °F 54% 29.47 in 10.0 mi North 1.2 mph - N/A   Clear
3:58 PM 21.0 °F - 6.8 °F 54% 29.48 in 10.0 mi Calm Calm - N/A   Clear
4:58 PM 22.1 °F - 6.6 °F 51% 29.48 in 10.0 mi Calm Calm - N/A   Scattered Clouds
5:58 PM 23.7 °F - 9.3 °F 54% 29.48 in 10.0 mi Calm Calm - N/A   Clear
6:58 PM 22.3 °F - 7.5 °F 53% 29.49 in 10.0 mi Calm Calm - N/A   Clear
7:58 PM 16.2 °F - 7.7 °F 69% 29.49 in 10.0 mi Variable 2.3 mph - N/A   Clear
8:58 PM 10.4 °F - 3.6 °F 74% 29.49 in 10.0 mi Calm Calm - N/A   Clear
9:58 PM 7.2 °F - 1.9 °F 79% 29.50 in 10.0 mi Calm Calm - N/A   Clear
10:58 PM 8.2 °F 1.6 °F 3.0 °F 79% 29.49 in 10.0 mi Variable 3.5 mph - N/A   Clear
11:58 PM 5.2 °F -3.8 °F 0.5 °F 81% 29.49 in 10.0 mi Variable 4.6 mph - N/A   Clear